Weather History for TTPP - November, 2012

Change the Weather History Date:

Friday, November 16, 2012

  Actual Average Record
Temperature  
Mean Temperature 81 °F -  
Max Temperature 88 °F 85 °F - ()
Min Temperature 74 °F 72 °F - ()
Cooling Degree Days 16    
Growing Degree Days 31 (Base 50)    
Moisture  
Dew Point 75 °F    
Average Humidity 86    
Maximum Humidity 100    
Minimum Humidity 62    
Precipitation  
Precipitation 0.94 in 0.25 in - ()
Sea Level Pressure  
Sea Level Pressure 29.84 in    
Wind  
Wind Speed 2 mph ()    
Max Wind Speed 14 mph    
Max Gust Speed -    
Visibility 6.7 miles    
Events Rain , Thunderstorm    
T = Trace of Precipitation, MM = Missing Value Source: Averaged Metar Reports

Daily Weather History Graph

Daily Weather History Graph

Search for Another Location

Airport or City:

Trip Planner

Search our weather history database for the weather conditions in past years. The results will help you decide how hot, cold, wet, or windy it might be!

Date:

Astronomy

Nov. 16, 2012 Rise Set
Actual Time 6:01 AM AST 5:39 PM AST
Civil Twilight 5:39 AM AST 6:01 PM AST
Nautical Twilight 5:13 AM AST 6:26 PM AST
Astronomical Twilight 4:47 AM AST 6:52 PM AST
Moon 8:42 AM AST (11/16) 8:39 PM AST (11/16)
Length of Visible Light 12h 22m
Length of Day
11h 37m
Waxing Crescent, 11% of the Moon is Illuminated
Nov 16
Waxing Crescent
Nov 20
First Quarter
Nov 28
Full
Dec 6
Last Quarter
Dec 13
New

Hourly Weather History & Observations

Time (AST) Temp. Heat Index Dew Point Humidity Pressure Visibility Wind Dir Wind Speed Gust Speed Precip Events Conditions
12:00 AM 77.0 °F - 75.2 °F 94% 29.83 in 6.2 mi Calm Calm - N/A   Mostly Cloudy
1:00 AM 77.0 °F - 75.2 °F 94% 29.83 in 6.2 mi Calm Calm - N/A   Scattered Clouds
2:00 AM 77 °F - 75 °F 92% 29.82 in 12 mi Calm Calm - -   Partly Cloudy
2:00 AM 78.8 °F - 75.2 °F 89% 29.83 in 6.2 mi Calm Calm - N/A Rain Light Rain Showers
3:00 AM 77.0 °F - 75.2 °F 94% 29.80 in 6.2 mi Calm Calm - N/A   Partly Cloudy
4:00 AM 77.0 °F - 75.2 °F 94% 29.80 in 6.2 mi Calm Calm - N/A   Partly Cloudy
5:00 AM 76 °F - 74 °F 94% 29.83 in 12 mi Calm Calm - -   Mist
5:00 AM 75.2 °F - 75.2 °F 100% 29.83 in 6.2 mi Calm Calm - N/A   Partly Cloudy
6:00 AM 75.2 °F - 75.2 °F 100% 29.83 in 6.2 mi Calm Calm - N/A   Mostly Cloudy
7:00 AM 77.0 °F - 75.2 °F 94% 29.86 in 6.2 mi Calm Calm - N/A Rain Light Rain Showers
8:00 AM 82 °F - 77 °F 80% 29.89 in 9 mi Calm Calm - -   Scattered Clouds
8:00 AM 82.4 °F 90.9 °F 77.0 °F 84% 29.89 in 6.2 mi Calm Calm - N/A   Mostly Cloudy
9:00 AM 86.0 °F 96.9 °F 77.0 °F 74% 29.89 in 5.0 mi SE 5.8 mph - N/A   Partly Cloudy
9:40 AM 82.4 °F 90.9 °F 77.0 °F 84% 29.89 in 0.7 mi SE 11.5 mph - N/A Rain Light Rain Showers
10:00 AM 78.8 °F - 77.0 °F 94% 29.89 in 1.2 mi SE 11.5 mph - N/A Rain Light Rain Showers
11:00 AM 76 °F - 75 °F 95% 29.91 in 1 mi South 3.5 mph - - Rain Light Rain Showers
11:00 AM 77.0 °F - 75.2 °F 94% 29.89 in 1.2 mi South 3.5 mph - N/A Rain Light Rain Showers
11:31 AM 78.8 °F - 75.2 °F 89% 29.89 in 3.7 mi East 6.9 mph - N/A Rain , Thunderstorm Light Thunderstorms and Rain
11:48 AM 78.8 °F - 75.2 °F 89% 29.86 in 6.2 mi ENE 5.8 mph - N/A   Mostly Cloudy
12:00 PM 78.8 °F - 75.2 °F 89% 29.86 in 6.2 mi ENE 5.8 mph - N/A   Mostly Cloudy
1:00 PM 80.6 °F 86.2 °F 75.2 °F 84% 29.83 in 6.2 mi ESE 3.5 mph - N/A   Mostly Cloudy
2:00 PM 86 °F - 75 °F 62% 29.82 in 16 mi ESE 13.8 mph - -   Partly Cloudy
2:00 PM 86.0 °F 95.1 °F 75.2 °F 70% 29.80 in 6.2 mi ESE 13.8 mph - N/A   Mostly Cloudy
3:00 PM 87.8 °F 97.6 °F 75.2 °F 66% 29.80 in 6.2 mi ESE 13.8 mph - N/A   Mostly Cloudy
4:00 PM 86.0 °F 95.1 °F 75.2 °F 70% 29.80 in 6.2 mi SE 9.2 mph - N/A   Mostly Cloudy
5:00 PM 86 °F - 76 °F 65% 29.82 in 12 mi SE 5.8 mph - -   Scattered Clouds
5:00 PM 86.0 °F 95.1 °F 75.2 °F 70% 29.80 in 6.2 mi SE 5.8 mph - N/A   Mostly Cloudy
6:00 PM 82.4 °F 89.5 °F 75.2 °F 79% 29.80 in 6.2 mi ESE 5.8 mph - N/A   Mostly Cloudy
7:00 PM 80.6 °F 86.2 °F 75.2 °F 84% 29.80 in 6.2 mi Calm Calm - N/A   Mostly Cloudy
8:00 PM 79 °F - 75 °F 85% 29.84 in 12 mi Calm Calm - -   Scattered Clouds
8:00 PM 78.8 °F - 75.2 °F 89% 29.83 in 6.2 mi Calm Calm - N/A   Mostly Cloudy
9:00 PM 78.8 °F - 75.2 °F 89% 29.86 in 6.2 mi Calm Calm - N/A   Scattered Clouds
10:00 PM 78.8 °F - 75.2 °F 89% 29.86 in 6.2 mi Calm Calm - N/A   Scattered Clouds
11:00 PM 78 °F - 74 °F 85% 29.87 in 12 mi Calm Calm - -   Scattered Clouds
11:00 PM 78.8 °F - 75.2 °F 89% 29.86 in 6.2 mi Calm Calm - N/A   Partly Cloudy